Simultaneous Nadir Overpasses (SNOs) Predictions

Prediction of SNOs between AQUA and METOP-B Satellite Orbit:

Table of predicted SNOs for the next 14.0 days since TLE Epoch: 1/8/2018
Index Date (AQUA) Time (AQUA) Lat,Lon (AQUA) SZA (AQUA ) Date (METOP-B) Time (METOP-B) Lat,Lon (METOP-B) SZA (METOP-B ) Distance(km) Time Diff (sec)
1 01/10/2018 03:21:45 73.83, 123.77 95.84 01/10/2018 03:21:16 73.81, 123.81 95.82 2.72 29
2 01/10/2018 04:11:11 -73.87, -68.68 84.12 01/10/2018 04:11:57 -73.87, -68.72 84.13 1.34 46
3 01/12/2018 22:06:20 -73.15, 24.02 85.32 01/12/2018 22:05:14 -73.06, 21.20 85.28 91.87 66
4 01/12/2018 22:56:01 73.83,-169.79 95.41 01/12/2018 22:55:38 73.82,-169.74 95.41 1.54 23
5 01/12/2018 23:45:27 -73.87, -2.24 84.56 01/12/2018 23:46:19 -73.89, -2.26 84.55 2.26 52
6 01/15/2018 17:40:40 -73.36, 90.02 85.58 01/15/2018 17:39:31 -73.33, 88.20 85.53 58.35 69
7 01/15/2018 18:30:17 73.84,-103.36 94.92 01/15/2018 18:30:00 73.84,-103.29 94.93 2.35 17
8 01/15/2018 19:19:43 -73.88, 64.19 85.05 01/15/2018 19:20:41 -73.91, 64.19 85.02 3.74 58
9 01/18/2018 13:15:00 -73.63, 155.89 85.84 01/18/2018 13:13:48 -73.55, 155.10 85.87 26.51 72
10 01/18/2018 14:04:32 73.85, -36.96 94.40 01/18/2018 14:04:21 73.86, -36.85 94.40 3.53 11
11 01/18/2018 14:53:58 -73.89, 130.61 85.58 01/18/2018 14:55:03 -73.88, 130.52 85.59 2.85 65
12 01/21/2018 08:49:18 -73.76,-137.94 86.30 01/21/2018 08:48:06 -73.77,-138.00 86.28 2.16 72
13 01/21/2018 09:38:47 73.82, 29.55 93.77 01/21/2018 09:38:44 73.82, 29.48 93.78 2.21 3




NCC Satellite Simultaneous Nadir Overpasses (SNOs) Prediction Service
